TimeCDT,TemperatureF,Dew PointF,Humidity,Sea Level PressureIn,VisibilityMPH,Wind Direction,Wind SpeedMPH,Gust SpeedMPH,PrecipitationIn,Events,Conditions,WindDirDegrees,DateUTC
12:52 AM,59.0,55.9,90,30.07,4.0,SSE,8.1,-,0.00,Rain,Light Rain,160,2013-10-29 05:52:00
12:59 AM,59.0,55.4,88,30.07,3.0,SSE,12.7,-,0.01,Rain-Thunderstorm,Light Rain,150,2013-10-29 05:59:00
1:24 AM,59.0,57.2,94,30.07,6.0,SSW,4.6,-,0.01,Rain-Thunderstorm,Light Rain,210,2013-10-29 06:24:00
1:32 AM,59.0,57.2,94,30.06,8.0,SSE,3.5,-,0.01,Rain-Thunderstorm,Light Rain,150,2013-10-29 06:32:00
1:41 AM,59.0,57.2,94,30.05,8.0,SE,9.2,-,0.01,Rain,Light Rain,130,2013-10-29 06:41:00
1:52 AM,59.0,57.0,93,30.03,8.0,ESE,9.2,-,0.01,,Overcast,120,2013-10-29 06:52:00
2:52 AM,61.0,57.9,90,30.00,9.0,SE,11.5,20.7,N/A,Thunderstorm,Overcast,140,2013-10-29 07:52:00
2:59 AM,60.8,57.2,88,29.99,8.0,SE,16.1,-,0.01,Rain-Thunderstorm,Light Rain,140,2013-10-29 07:59:00
3:13 AM,60.8,57.2,88,29.99,9.0,SSE,13.8,-,0.01,Thunderstorm,Overcast,160,2013-10-29 08:13:00
3:27 AM,60.8,57.2,88,30.00,2.0,SSE,12.7,-,0.04,Rain-Thunderstorm,Light Thunderstorms and Rain,160,2013-10-29 08:27:00
3:38 AM,60.8,59.0,94,29.99,1.5,SE,12.7,-,0.07,Rain-Thunderstorm,Heavy Thunderstorms and Rain,140,2013-10-29 08:38:00
3:52 AM,60.1,59.0,96,29.99,2.0,SE,9.2,18.4,0.12,Rain-Thunderstorm,Thunderstorms and Rain,140,2013-10-29 08:52:00
3:57 AM,60.8,59.0,94,30.00,3.0,South,6.9,-,0.00,Rain-Thunderstorm,Light Thunderstorms and Rain,180,2013-10-29 08:57:00
4:02 AM,60.8,59.0,94,30.01,6.0,South,8.1,-,0.00,Rain,Light Rain,180,2013-10-29 09:02:00
4:06 AM,60.8,59.0,94,30.01,7.0,South,9.2,-,0.00,Thunderstorm,Overcast,180,2013-10-29 09:06:00
4:24 AM,60.8,57.2,88,30.01,6.0,SSE,9.2,-,0.00,Rain,Light Rain,150,2013-10-29 09:24:00
4:50 AM,60.8,57.2,88,29.99,6.0,SE,9.2,-,0.00,Rain,Light Rain,140,2013-10-29 09:50:00
4:52 AM,60.1,57.9,93,29.98,6.0,SE,10.4,-,0.00,Rain,Light Rain,140,2013-10-29 09:52:00
5:49 AM,60.8,59.0,94,30.00,6.0,SSE,8.1,-,0.00,,Overcast,160,2013-10-29 10:49:00
5:52 AM,61.0,59.0,93,29.99,6.0,SSE,8.1,-,0.00,,Overcast,150,2013-10-29 10:52:00
6:52 AM,63.0,60.1,90,29.99,7.0,South,13.8,-,N/A,,Overcast,170,2013-10-29 11:52:00
7:52 AM,63.0,61.0,93,30.00,7.0,South,8.1,-,N/A,,Overcast,180,2013-10-29 12:52:00
8:09 AM,62.6,60.8,94,30.02,7.0,South,8.1,-,N/A,,Overcast,180,2013-10-29 13:09:00
8:52 AM,64.0,61.0,90,30.03,6.0,South,3.5,-,0.01,,Overcast,170,2013-10-29 13:52:00
9:19 AM,64.4,60.8,88,30.04,6.0,Calm,Calm,-,0.00,,Overcast,0,2013-10-29 14:19:00
9:52 AM,64.0,62.1,93,30.04,4.0,SE,4.6,-,0.00,,Overcast,140,2013-10-29 14:52:00
10:52 AM,64.9,63.0,93,30.01,5.0,South,10.4,-,N/A,,Overcast,170,2013-10-29 15:52:00
11:52 AM,66.9,64.0,90,30.00,6.0,South,9.2,-,N/A,,Overcast,180,2013-10-29 16:52:00
12:52 PM,68.0,64.0,87,29.98,7.0,South,10.4,-,N/A,,Overcast,170,2013-10-29 17:52:00
1:40 PM,69.8,64.4,83,29.97,7.0,South,9.2,-,N/A,,Overcast,180,2013-10-29 18:40:00
1:52 PM,69.1,64.9,87,29.96,8.0,South,9.2,-,N/A,,Overcast,180,2013-10-29 18:52:00
2:52 PM,70.0,64.9,84,29.94,8.0,South,6.9,-,N/A,,Overcast,180,2013-10-29 19:52:00
4:52 PM,72.0,66.9,84,29.93,9.0,South,10.4,-,0.01,,Clear,170,2013-10-29 21:52:00
5:52 PM,71.1,66.0,84,29.93,9.0,SSE,8.1,-,N/A,,Clear,160,2013-10-29 22:52:00
6:52 PM,70.0,66.0,87,29.93,10.0,South,10.4,-,N/A,,Clear,170,2013-10-29 23:52:00
7:52 PM,70.0,66.0,87,29.95,10.0,South,8.1,-,N/A,,Mostly Cloudy,170,2013-10-30 00:52:00
8:52 PM,69.1,66.0,90,29.96,9.0,SSE,6.9,-,N/A,,Mostly Cloudy,160,2013-10-30 01:52:00
9:52 PM,69.1,66.0,90,29.98,8.0,South,9.2,-,N/A,,Mostly Cloudy,170,2013-10-30 02:52:00
10:00 PM,69.8,66.2,88,29.99,8.0,South,6.9,-,N/A,,Mostly Cloudy,180,2013-10-30 03:00:00
10:52 PM,70.0,66.0,87,29.99,9.0,South,9.2,-,N/A,,Overcast,180,2013-10-30 03:52:00
11:02 PM,69.8,66.2,88,30.00,9.0,South,8.1,-,N/A,,Overcast,180,2013-10-30 04:02:00
11:52 PM,70.0,66.0,87,29.97,10.0,South,11.5,-,N/A,,Overcast,170,2013-10-30 04:52:00